Flag for Congo Dem.Rep. Weather past 2 weeks in Bukavu, Congo Dem.Rep.

Now
68 °F

Clear.


Feels Like: 68 °F
Forecast: 55 / 74 °F
Wind: 5 mph from West

Location: Kigali Airport

Current Time: Jul 13, 2014 at 11:25:33 PM

Latest Report: Jul 13, 2014 at 11:00 PM


Visibility: 10 mi

Pressure: 30.18 "Hg

Humidity: 60%

Dew point: 54 °F

Location of BukavuLocation

Historic Weather in Bukavu — Graph

°F

Bukavu temperature yesterday

Maximum temperature yesterday: 82 °F (at 3:00 PM)
Minimum temperature yesterday: 63 °F (at 3:30 AM)
Average temperature yesterday: 72 °F

Past Weeks' High & Low Weather Summary

 TemperatureHumidityPressure
High86 °F (Jul 8, 3:00 PM)88% (Jun 29, 6:00 AM)30.30 "Hg (Jun 29, 6:00 AM)
Low57 °F (Jul 1, 6:30 AM)29% (Jul 9, 3:30 PM)30.09 "Hg (Jun 29, 3:30 PM)
Average72 °F56%30.18 "Hg
* Reported Jun 28 10:00 PM — Jul 13 10:00 PM, Bukavu, Weather by CustomWeather, © 2014

Note: Actual official high and low records may vary slightly from our data, if they occured in-between our weather recording intervals... More about our weather records

Advertising

Bukavu weather history for previous 24 hours

 ConditionsComfort  
Time TempWeatherWind HumidityBarometerVisibility
10:00 PM
Jul 13
70 °FPassing clouds.3 mph53%30.21 "HgN/A
9:30 PM72 °FPassing clouds.3 mph50%30.21 "HgN/A
9:00 PM72 °FPassing clouds.3 mph53%30.21 "HgN/A
8:00 PM73 °FPassing clouds.3 mph47%30.18 "HgN/A
7:30 PM75 °FPassing clouds.No wind47%30.18 "HgN/A
7:00 PM77 °FPassing clouds.3 mph44%30.15 "HgN/A
6:30 PM77 °FPassing clouds.6 mph44%30.15 "HgN/A
6:00 PM79 °FPassing clouds.5 mph39%30.15 "HgN/A
5:30 PM79 °FScattered clouds.6 mph42%30.15 "HgN/A
5:00 PM81 °FScattered clouds.7 mph39%30.15 "HgN/A
4:30 PM81 °FScattered clouds.5 mph39%30.15 "HgN/A
4:00 PM79 °FBroken clouds.3 mph42%30.15 "HgN/A
3:30 PM81 °FBroken clouds.7 mph39%30.15 "HgN/A
3:00 PM81 °FBroken clouds.7 mph39%30.15 "HgN/A
2:30 PM81 °FBroken clouds.3 mph37%30.18 "HgN/A
2:00 PM81 °FBroken clouds.3 mph39%30.18 "HgN/A
1:30 PM81 °FBroken clouds.6 mph39%30.21 "HgN/A
1:00 PM79 °FPartly sunny.7 mph39%30.21 "HgN/A
12:30 PM79 °FPartly sunny.7 mph39%30.24 "HgN/A
12:00 PM77 °FPartly sunny.9 mph42%30.24 "HgN/A
11:30 AM77 °FScattered clouds.8 mph44%30.27 "HgN/A
11:00 AM75 °FPassing clouds.9 mph44%30.27 "HgN/A
10:00 AM75 °FPassing clouds.10 mph44%30.27 "HgN/A
9:30 AM73 °FPassing clouds.5 mph50%30.27 "HgN/A
9:00 AM73 °FPassing clouds.3 mph53%30.27 "Hg5 mi
8:30 AM70 °FScattered clouds.No wind60%30.27 "Hg5 mi
8:00 AM68 °FScattered clouds.No wind69%30.27 "Hg5 mi
7:30 AM64 °FScattered clouds.No wind78%30.24 "Hg5 mi
7:00 AM63 °FScattered clouds.No wind77%30.24 "Hg5 mi
6:30 AM63 °FPassing clouds.No wind77%30.24 "Hg5 mi
6:00 AM63 °FPassing clouds.No wind77%30.21 "Hg5 mi
5:30 AM64 °FPassing clouds.No wind73%30.21 "HgN/A
5:00 AM64 °FPassing clouds.No wind68%30.21 "HgN/A
4:30 AM64 °FPassing clouds.No wind73%30.21 "HgN/A
4:00 AM64 °FPassing clouds.No wind73%30.21 "HgN/A
3:30 AM64 °FPassing clouds.No wind68%30.21 "HgN/A
3:00 AM66 °FPassing clouds.No wind64%30.18 "HgN/A
2:30 AM68 °FPassing clouds.No wind64%30.21 "HgN/A
2:00 AM68 °FPassing clouds.No wind60%30.21 "HgN/A
1:30 AM68 °FPassing clouds.3 mph56%30.21 "HgN/A
1:00 AM68 °FPassing clouds.No wind60%30.21 "HgN/A
12:30 AM68 °FPassing clouds.3 mph60%30.24 "HgN/A
12:00 AM70 °FPassing clouds.3 mph57%30.21 "HgN/A
11:30 PM
Jul 12
70 °FPassing clouds.3 mph57%30.24 "HgN/A
11:00 PM70 °FPassing clouds.5 mph57%30.21 "HgN/A
Weather by CustomWeather, © 2014

See weather overviewHow to use our weather pages